Wetbulb
45.21 43.36 40.42 43.35 44.72 45.12 43.33 41.40 40.80 42.12 43.17 42.01 43.06 43.76 44.06 41.08 40.75 39.75 39.63 39.42 39.14 38.46 39.01 40.07 41.06 43.20 42.58 42.22 42.13 42.70 43.01 43.95 44.20 42.78 40.65 39.98 39.14 40.30 40.27 40.42 40.87 40.91 41.21 41.85
41.21 39.87 45.42 43.56 43.79 41.94 41.40 40.62 40.53 41.75 41.97 41.15 42.45 41.14 44.07 40.12 40.23 40.32 39.30 38.81 38.39 38.14 38.50 38.59 39.72 41.09 41.91 41.42 41.48 41.68 41.77 42.55 43.42 43.53 42.75 41.28 39.68 39.20 39.27 39.41 39.27 39.61 39.63 39.55
41.84 43.19 44.05 41.89 39.09 38.73 39.78 39.45 40.56 39.85 40.39 41.00 39.74 39.97 39.51 35.86 36.51 37.12 37.43 38.25 38.40 38.04 36.54 36.73 37.22 38.82 40.07 40.32 40.96 41.15 41.46 41.66 40.98 40.48 39.94 39.60 39.98 39.72 38.46 38.07 37.59 37.93 38.31 38.34
41.47 43.53 39.91 39.48 38.80 40.28 37.28 40.80 40.54 39.40 38.14 36.49 40.17 36.04 39.04 37.55 34.98 34.83 35.34 36.73 36.38 36.21 35.79 35.63 35.96 36.60 36.92 37.50 39.03 39.50 39.24 38.94 39.39 40.48 39.81 39.13 37.42 35.44 36.55 37.00 37.42 37.29 37.84 37.46
40.88 38.88 39.44 38.87 39.67 40.33 39.53 40.94 39.96 39.09 38.26 37.01 36.97 35.51 39.79 34.43 32.98 33.61 34.84 36.17 36.49 36.29 35.48 34.53 34.81 34.81 35.49 36.90 37.41 38.02 37.95 37.79 38.55 39.20 38.90 37.89 36.51 36.61 37.28 37.23 36.64 36.76 36.82 36.62
41.42 42.00 41.86 41.88 40.00 41.55 40.15 38.55 37.10 36.52 36.91 30.99 37.25 35.47 39.94 34.38 36.27 35.21 34.97 35.20 35.30 34.90 34.72 34.22 34.16 34.52 34.58 35.96 36.95 37.60 37.24 36.96 37.98 38.18 38.13 37.43 36.52 36.28 36.07 36.17 35.73 35.86 36.09 35.83
40.25 39.71 40.65 40.75 39.46 38.76 39.65 37.58 31.52 28.97 28.44 30.42 33.63 33.80 39.76 39.30 37.64 37.44 34.44 34.69 35.22 34.73 33.77 33.10 32.54 33.09 33.65 34.54 35.65 36.22 36.36 35.62 36.86 37.03 36.91 36.95 36.54 36.24 35.38 35.08 34.86 34.58 34.39 33.64
36.25 34.94 39.21 40.95 42.19 38.97 36.99 39.34 34.13 27.66 27.03 31.47 31.67 30.00 36.93 35.53 36.66 38.98 37.37 36.45 35.53 34.10 33.85 32.89 32.93 33.31 33.54 34.02 35.11 35.61 35.14 34.68 35.62 35.66 35.51 36.05 35.99 35.58 35.11 34.96 34.96 33.98 33.39 32.52
35.70 35.96 39.37 38.12 39.48 42.01 35.84 32.60 38.59 29.45 24.27 29.44 34.84 35.81 34.22 33.88 34.16 35.61 35.37 34.73 33.39 33.51 33.37 33.06 33.29 33.60 33.81 34.16 34.61 34.97 34.61 34.47 34.90 34.78 34.96 35.16 35.52 35.25 34.67 34.74 34.33 33.22 32.43 31.21
40.18 35.36 36.27 36.73 39.77 38.47 38.36 40.06 32.23 33.66 27.15 26.75 32.22 31.78 36.53 31.53 32.58 33.61 33.53 33.27 33.51 34.00 33.57 33.44 33.19 33.33 34.27 34.70 34.78 35.14 34.98 34.50 34.46 34.49 35.12 34.42 34.31 34.56 34.18 33.28 31.58 30.98 30.76 30.34
39.97 37.59 33.36 36.00 35.20 36.19 34.73 34.00 35.05 35.95 34.07 29.60 28.33 32.69 38.65 38.33 36.16 33.57 34.47 34.84 34.78 34.12 33.72 33.39 33.60 33.97 34.09 34.32 34.22 34.46 34.56 34.15 34.06 34.28 34.25 34.14 33.51 32.64 31.73 30.51 29.73 29.07 28.71 28.22
40.80 36.95 33.19 33.44 35.91 36.14 39.05 37.32 36.90 33.17 28.22 30.89 30.78 33.53 35.48 36.83 38.44 36.84 35.84 35.75 36.08 35.41 34.79 34.81 34.17 33.67 33.17 33.30 33.83 34.22 34.35 33.94 33.99 33.71 33.60 32.52 31.17 29.92 28.96 27.54 27.45 27.80 26.80 26.94
39.65 34.99 31.77 33.41 33.13 34.42 33.41 35.38 37.35 38.81 34.87 31.24 29.84 33.41 34.47 35.72 36.30 36.49 36.52 36.77 36.34 35.65 35.28 34.83 34.02 32.88 32.77 33.20 33.47 33.81 33.63 33.01 32.73 32.84 31.71 29.83 28.39 27.64 27.05 26.48 26.13 25.65 25.31 24.99
40.57 36.01 35.05 33.41 36.16 36.56 31.74 34.39 34.92 35.35 32.40 33.08 32.35 35.51 33.01 34.02 34.75 35.74 36.60 37.48 36.97 35.62 34.62 34.03 32.96 32.66 33.01 33.18 33.23 33.19 32.60 32.69 31.63 30.75 29.50 27.78 26.75 25.97 25.70 25.21 24.54 24.02 23.69 23.27
38.24 32.48 35.79 37.27 31.99 32.35 32.57 34.10 33.58 33.10 35.29 33.10 36.15 34.73 37.03 37.47 36.95 37.72 38.04 37.38 36.21 33.94 33.70 33.63 33.25 32.63 32.55 32.36 32.48 31.86 31.58 30.89 30.17 28.41 27.10 26.13 25.77 25.00 24.42 23.44 22.68 22.22 21.70 21.27
35.99 32.12 33.26 32.86 29.11 29.76 30.25 32.04 33.95 34.66 35.89 36.07 34.03 33.96 39.79 40.60 38.70 38.89 36.82 35.94 34.24 33.70 33.92 34.11 33.15 32.72 31.96 31.61 31.06 29.96 29.67 29.03 28.10 26.99 25.78 24.73 24.19 22.68 21.67 20.61 19.68 19.61 19.15 18.87
32.11 31.27 31.43 29.25 24.66 28.39 27.94 31.87 31.68 33.09 35.11 34.98 30.44 36.86 35.02 33.63 35.49 37.39 36.44 35.46 34.05 34.61 34.56 33.71 32.40 32.38 31.57 31.31 30.36 29.77 29.06 27.15 25.91 25.29 23.45 22.44 21.62 20.00 19.06 18.22 17.61 17.03 16.64 16.61
31.76 32.03 31.81 23.21 24.21 21.74 28.51 27.23 31.63 33.85 35.15 34.86 33.17 33.78 34.74 37.32 37.05 36.64 38.01 36.23 35.32 35.38 34.73 33.66 33.32 32.59 31.86 31.91 30.57 30.04 27.29 24.94 24.29 23.05 20.97 20.44 19.15 17.58 16.73 15.75 15.15 15.11 15.36 14.26
28.88 30.42 22.39 22.55 23.47 26.07 29.23 24.95 25.47 28.63 30.79 33.90 33.78 34.63 32.41 28.40 30.06 32.48 33.50 35.26 36.82 35.87 35.11 34.27 32.56 31.66 31.35 29.84 29.06 25.61 23.41 23.57 21.77 20.44 20.00 18.98 16.91 14.33 13.95 11.31 13.10 13.40 12.78 12.34
28.12 29.32 30.31 21.72 21.63 20.62 30.33 24.99 25.53 31.02 25.83 31.02 34.38 34.03 28.88 27.56 28.65 34.23 29.64 30.70 30.35 30.68 30.48 30.42 31.48 29.71 28.80 27.26 25.27 23.22 21.77 20.85 20.53 20.07 19.08 17.55 15.07 12.16 10.92 11.51 10.74 11.89 11.21 10.79
23.46 24.40 24.80 22.85 23.45 26.61 29.58 25.05 26.18 23.29 28.88 25.57 29.85 30.27 26.66 28.31 32.77 31.29 29.36 28.19 29.75 29.98 29.53 29.35 27.92 27.05 27.21 23.70 23.01 22.08 21.06 20.15 20.95 18.71 16.65 14.55 13.15 10.27 9.79 9.89 10.19 9.28 8.98 9.24
23.43 23.21 22.38 24.31 22.02 20.81 24.65 23.64 25.61 30.36 26.14 27.36 27.09 28.44 27.72 29.21 27.64 27.78 28.43 27.69 27.71 27.11 27.58 26.91 25.60 24.32 22.84 22.86 22.78 21.54 19.83 20.62 17.77 15.91 14.07 11.59 8.71 9.56 10.64 6.94 7.68 7.62 7.74 7.34
22.07 27.30 25.46 26.28 26.95 24.35 27.22 28.85 29.59 29.07 28.27 26.62 27.95 28.06 28.89 27.22 26.91 27.40 27.06 27.04 26.94 26.80 26.15 25.14 25.14 22.43 21.75 21.70 22.69 20.57 20.22 16.77 14.16 11.73 9.49 7.43 6.87 7.87 7.56 6.82 7.13 7.88 8.37 7.39
20.42 22.18 23.67 24.19 23.37 24.21 25.77 27.29 26.98 28.48 28.47 28.36 28.54 28.62 28.00 28.07 27.57 26.32 25.44 24.84 24.63 24.92 24.77 23.67 22.38 21.10 19.04 19.29 19.44 21.28 16.66 14.70 9.42 8.69 7.19 6.18 5.19 7.77 6.60 8.18 8.61 8.18 7.67 7.03
23.15 22.39 19.04 19.93 22.00 24.23 26.74 27.50 29.11 28.02 27.29 26.18 26.56 26.61 28.07 27.69 26.02 26.53 25.56 25.10 25.23 25.11 24.16 22.75 22.29 21.74 20.79 18.18 17.57 15.92 14.16 9.92 8.87 8.18 7.32 8.25 8.00 6.39 7.31 7.16 8.17 7.57 8.59 8.94
22.21 20.65 20.68 21.51 26.31 27.90 28.79 31.11 30.14 26.85 26.05 27.59 27.22 25.56 26.08 26.91 26.77 25.68 25.31 25.76 25.02 24.05 22.87 21.30 21.39 20.96 19.74 16.85 15.88 13.21 10.35 8.68 8.53 8.09 7.55 8.68 8.16 7.33 6.84 6.67 6.87 9.78 11.31 12.73
MSLP
1017.81 1017.47 1016.56 1015.62 1015.95 1016.05 1016.05 1016.14 1015.99 1016.20 1016.64 1017.00 1016.78 1017.02 1018.09 1020.09 1021.12 1021.87 1022.56 1023.17 1023.69 1024.24 1024.74 1024.92 1024.95 1024.70 1024.59 1024.50 1024.40 1024.40 1024.37 1024.60 1024.57 1024.78 1025.18 1025.55 1025.97 1026.54 1026.98 1027.42 1027.52 1027.28 1027.37 1027.32
1018.12 1016.59 1015.72 1016.38 1016.51 1016.66 1016.64 1016.45 1016.30 1016.68 1016.92 1017.25 1016.77 1016.89 1017.87 1019.91 1020.85 1021.82 1022.53 1023.26 1023.92 1024.48 1024.75 1025.10 1025.27 1025.23 1025.03 1024.88 1024.83 1024.81 1024.88 1025.05 1025.05 1025.15 1025.40 1025.84 1026.71 1027.44 1027.80 1028.16 1028.12 1028.13 1028.07 1028.12
1016.26 1016.00 1015.93 1016.54 1017.01 1017.07 1016.79 1016.59 1016.49 1016.88 1017.21 1017.41 1017.37 1016.49 1017.81 1019.94 1021.27 1022.33 1023.04 1023.62 1024.05 1024.41 1024.93 1025.32 1025.53 1025.57 1025.62 1025.51 1025.49 1025.37 1025.33 1025.39 1025.65 1025.83 1026.17 1026.70 1027.22 1027.84 1028.34 1028.73 1029.08 1029.33 1029.24 1029.19
1016.41 1016.22 1016.63 1016.86 1016.91 1017.06 1016.76 1016.81 1017.15 1017.43 1017.65 1016.97 1017.53 1015.56 1016.70 1018.71 1020.60 1021.98 1022.97 1023.57 1024.13 1024.74 1025.32 1025.63 1025.77 1025.85 1026.09 1026.21 1026.26 1026.29 1026.38 1026.34 1026.40 1026.47 1026.62 1026.93 1027.44 1028.13 1028.97 1029.28 1029.78 1030.06 1030.10 1030.16
1015.45 1016.23 1016.47 1016.48 1016.45 1017.00 1016.91 1017.19 1017.61 1017.90 1017.69 1017.65 1017.62 1017.75 1016.09 1018.56 1019.72 1021.01 1022.48 1023.41 1024.08 1024.71 1025.34 1025.80 1026.10 1026.27 1026.52 1026.60 1026.64 1026.76 1026.87 1027.02 1027.14 1026.98 1027.23 1027.78 1028.48 1029.30 1029.75 1029.96 1030.12 1030.26 1030.51 1030.68
1015.93 1016.37 1016.33 1016.11 1016.80 1017.12 1017.71 1018.00 1018.49 1018.68 1018.30 1017.21 1016.58 1017.27 1014.96 1017.17 1017.49 1019.72 1021.75 1023.11 1024.00 1024.75 1025.49 1026.20 1026.67 1026.91 1027.15 1027.43 1027.32 1027.35 1027.58 1027.99 1028.21 1028.11 1028.11 1028.23 1028.68 1029.41 1030.03 1030.61 1030.68 1031.00 1031.06 1031.17
1015.70 1015.87 1015.96 1016.21 1016.79 1017.72 1017.48 1017.69 1018.47 1018.57 1018.25 1016.12 1016.25 1016.65 1014.55 1016.36 1017.74 1018.81 1020.55 1022.24 1023.45 1024.48 1025.31 1026.05 1026.54 1026.84 1027.28 1027.66 1027.88 1027.96 1028.11 1028.43 1028.78 1028.96 1029.30 1029.44 1029.54 1029.86 1030.56 1030.69 1031.45 1031.53 1031.56 1031.76
1014.67 1014.90 1015.13 1015.33 1015.04 1015.85 1016.66 1016.49 1016.63 1016.75 1016.93 1016.07 1016.77 1015.59 1015.05 1016.76 1018.00 1018.85 1020.66 1022.00 1023.30 1024.37 1025.14 1025.83 1026.39 1026.81 1027.30 1027.71 1027.86 1028.05 1028.36 1028.80 1029.31 1029.74 1030.17 1030.56 1030.56 1030.63 1030.85 1031.04 1031.13 1031.85 1031.99 1032.08
1013.86 1014.24 1014.54 1014.96 1015.12 1015.35 1016.54 1016.55 1016.31 1016.80 1017.69 1016.60 1014.74 1014.75 1015.86 1017.25 1018.24 1019.22 1020.28 1021.68 1022.92 1023.92 1024.82 1025.51 1026.21 1026.65 1027.11 1027.61 1028.07 1028.32 1028.71 1029.15 1029.47 1029.76 1030.15 1030.70 1031.45 1031.00 1031.13 1031.45 1031.01 1031.87 1032.22 1032.34
1012.96 1013.90 1014.66 1015.29 1015.43 1015.71 1015.38 1015.31 1016.38 1016.34 1016.03 1015.17 1013.74 1014.21 1014.24 1016.28 1017.41 1018.74 1019.87 1020.78 1021.96 1023.15 1024.26 1025.07 1025.79 1026.33 1026.88 1027.42 1028.05 1028.71 1029.06 1029.46 1029.73 1030.11 1030.25 1030.90 1031.52 1030.96 1031.50 1032.02 1031.39 1032.55 1032.63 1032.85
1013.09 1013.80 1015.21 1015.49 1014.65 1014.01 1015.23 1014.95 1014.80 1014.65 1014.32 1013.82 1013.55 1012.87 1013.12 1014.25 1015.82 1017.31 1018.74 1019.89 1020.88 1022.07 1023.31 1024.44 1025.38 1026.07 1026.84 1027.45 1027.90 1028.34 1028.98 1029.66 1030.04 1030.13 1030.49 1030.96 1031.69 1031.22 1032.08 1032.17 1032.24 1033.23 1033.37 1033.28
1012.94 1013.63 1014.19 1014.26 1014.46 1014.49 1013.82 1013.40 1013.28 1012.93 1013.67 1013.84 1013.76 1012.77 1013.71 1014.46 1015.19 1016.53 1017.67 1019.08 1020.37 1021.61 1022.81 1023.82 1024.69 1025.56 1026.31 1026.92 1027.65 1028.17 1028.87 1028.67 1030.12 1030.20 1030.61 1031.02 1031.74 1032.06 1032.75 1032.91 1033.21 1033.49 1033.44 1033.25
1012.91 1013.86 1014.39 1014.58 1014.99 1014.75 1013.91 1013.38 1012.59 1012.44 1012.93 1012.36 1013.45 1012.51 1014.08 1014.72 1015.41 1016.38 1017.19 1018.28 1019.74 1021.25 1022.40 1023.30 1024.26 1025.04 1025.82 1026.50 1027.08 1028.01 1028.58 1028.74 1030.05 1030.53 1030.67 1031.15 1032.36 1032.54 1032.83 1032.90 1033.51 1033.47 1033.41 1033.37
1013.01 1012.97 1012.34 1011.85 1011.53 1011.95 1013.06 1012.48 1012.53 1012.57 1012.19 1011.17 1010.61 1012.01 1013.64 1014.45 1015.17 1016.01 1016.69 1017.72 1018.63 1019.83 1021.24 1022.51 1023.60 1024.37 1025.22 1026.11 1026.89 1027.71 1028.42 1028.96 1030.08 1030.66 1031.10 1031.48 1032.37 1032.73 1032.99 1033.03 1033.41 1033.53 1033.37 1033.38
1013.76 1013.05 1012.83 1012.20 1012.93 1012.85 1012.20 1011.79 1012.10 1011.65 1010.29 1010.93 1009.89 1011.25 1012.36 1013.19 1014.01 1014.65 1015.47 1017.04 1018.09 1019.17 1020.33 1021.23 1022.34 1023.53 1024.59 1025.57 1026.69 1027.67 1028.35 1029.31 1030.13 1030.68 1030.93 1031.55 1032.33 1032.73 1032.95 1033.11 1033.45 1033.65 1033.65 1033.69
1013.81 1013.38 1013.40 1013.13 1013.61 1013.81 1013.20 1012.71 1011.83 1011.39 1011.11 1010.91 1011.34 1011.56 1011.98 1012.77 1013.83 1014.39 1015.16 1016.27 1016.98 1017.79 1018.63 1019.93 1021.41 1022.67 1023.64 1024.80 1026.01 1027.20 1028.20 1029.06 1030.04 1030.48 1030.80 1031.74 1032.39 1032.67 1033.01 1033.28 1033.66 1033.70 1033.74 1033.76
1014.13 1013.92 1013.89 1014.00 1014.52 1014.38 1013.84 1011.99 1012.20 1011.74 1011.39 1011.38 1011.56 1011.71 1012.49 1013.43 1013.92 1013.85 1014.44 1015.36 1015.88 1016.56 1017.57 1018.89 1020.15 1021.60 1023.13 1024.40 1025.33 1026.60 1027.75 1029.02 1029.73 1030.25 1031.15 1031.89 1032.26 1032.61 1033.10 1033.41 1033.62 1033.70 1033.74 1033.73
1014.48 1014.13 1014.16 1014.57 1014.94 1014.18 1012.44 1012.53 1012.16 1011.67 1011.50 1011.73 1012.10 1012.52 1012.92 1013.16 1013.59 1014.00 1014.33 1014.82 1015.51 1016.49 1017.44 1018.72 1019.89 1021.28 1023.01 1024.25 1025.36 1026.53 1027.94 1028.79 1029.49 1030.37 1031.32 1031.89 1032.15 1032.63 1033.15 1033.50 1033.73 1033.87 1033.85 1033.76
1015.10 1014.71 1014.86 1014.85 1014.37 1013.69 1012.77 1012.97 1012.91 1012.13 1011.85 1011.77 1012.27 1013.09 1013.73 1014.46 1014.83 1014.71 1014.97 1015.18 1015.55 1016.30 1017.42 1018.55 1019.60 1020.98 1022.50 1023.66 1025.05 1026.46 1027.82 1028.62 1029.45 1030.24 1031.04 1031.63 1032.07 1032.72 1033.16 1033.58 1033.76 1033.91 1033.86 1033.59
1015.50 1015.16 1014.93 1015.17 1014.33 1013.49 1012.32 1012.71 1012.89 1012.74 1012.38 1011.66 1012.14 1013.09 1014.19 1015.07 1015.19 1014.49 1015.17 1015.97 1016.68 1017.23 1018.00 1018.84 1019.85 1021.19 1022.43 1023.68 1024.92 1026.21 1027.34 1028.37 1029.12 1029.96 1030.78 1031.45 1032.15 1032.79 1033.31 1033.62 1033.83 1033.66 1033.53 1033.27
1015.54 1015.37 1014.56 1014.45 1013.89 1013.34 1012.56 1013.08 1013.21 1013.41 1012.61 1012.27 1012.75 1013.54 1014.56 1015.05 1014.87 1015.06 1015.49 1016.51 1016.97 1017.60 1018.33 1019.29 1020.28 1021.12 1022.33 1023.58 1024.74 1026.03 1027.10 1027.91 1028.76 1029.91 1030.76 1031.50 1032.02 1032.62 1033.05 1033.37 1033.38 1033.40 1033.27 1033.00
1013.88 1014.32 1014.35 1014.37 1014.08 1013.32 1012.69 1013.69 1013.09 1012.35 1012.55 1012.75 1013.45 1013.83 1014.39 1014.83 1015.13 1015.52 1016.16 1016.93 1017.48 1018.15 1019.12 1019.93 1020.91 1021.85 1022.91 1023.69 1024.60 1025.68 1026.65 1027.66 1028.88 1029.77 1030.64 1031.49 1032.10 1032.44 1032.69 1033.08 1033.17 1033.13 1032.92 1032.54
1014.12 1012.82 1012.90 1013.34 1012.85 1012.56 1012.50 1012.42 1012.21 1012.46 1012.64 1013.30 1013.49 1013.78 1014.43 1014.98 1015.55 1015.93 1016.61 1017.29 1018.04 1018.69 1019.52 1020.56 1020.98 1022.02 1023.13 1023.81 1024.33 1025.30 1026.31 1027.65 1028.75 1029.70 1030.60 1031.35 1031.93 1032.26 1032.54 1032.73 1032.65 1032.40 1032.16 1031.90
1013.33 1013.16 1012.82 1012.95 1013.01 1012.96 1012.97 1012.78 1012.58 1012.67 1012.93 1013.22 1013.59 1014.08 1014.73 1015.10 1015.67 1016.23 1016.94 1017.70 1018.38 1019.10 1019.82 1020.59 1021.31 1022.19 1023.13 1023.83 1024.35 1025.08 1026.32 1027.50 1028.65 1029.37 1030.45 1031.16 1031.69 1031.84 1032.09 1032.08 1031.95 1031.80 1031.68 1031.50
1013.01 1013.19 1013.32 1013.19 1013.11 1013.07 1012.71 1012.46 1012.33 1012.94 1013.49 1013.78 1014.12 1014.46 1014.75 1015.23 1015.90 1016.43 1017.18 1017.83 1018.29 1018.86 1019.58 1020.40 1020.97 1021.64 1022.34 1023.39 1024.24 1025.25 1026.21 1027.44 1028.37 1029.37 1030.14 1030.63 1031.03 1031.29 1031.30 1031.46 1031.38 1031.30 1031.17 1030.97
1012.47 1012.45 1012.45 1011.95 1011.73 1011.60 1011.40 1011.16 1011.64 1012.77 1013.27 1013.64 1014.18 1014.84 1015.26 1015.59 1015.87 1016.57 1017.07 1017.41 1017.82 1018.60 1019.38 1020.23 1020.71 1021.35 1022.09 1023.07 1024.05 1025.17 1026.24 1027.17 1028.13 1029.02 1029.62 1029.89 1030.25 1030.61 1030.82 1030.93 1030.80 1030.71 1030.40 1029.89
Wind_Speed
4 9 14 23 20 8 4 7 8 5 2 4 13 14 12 7 6 7 6 6 5 5 5 6 7 7 9 10 11 11 11 9 7 7 8 9 10 11 11 11 15 16 14 15
5 16 16 1 11 12 8 11 13 7 4 5 12 16 10 10 7 8 8 8 8 8 8 8 8 8 10 11 11 12 12 10 9 8 9 10 10 11 11 11 14 15 16 16
16 4 9 10 8 12 15 16 13 10 1 6 7 16 12 5 5 7 7 8 9 10 10 9 10 10 10 12 12 13 14 15 14 15 12 12 11 10 10 11 11 13 15 15
13 5 7 10 11 13 15 12 10 9 6 11 4 10 6 9 10 11 12 12 11 11 9 10 11 12 11 11 11 13 13 14 12 12 12 14 12 12 10 9 10 10 14 14
6 10 12 10 9 14 4 6 8 6 10 7 9 9 4 6 12 14 14 14 13 12 11 11 11 11 11 11 12 13 15 14 13 14 14 12 14 10 8 8 11 11 11 13
6 1 5 5 3 5 13 8 5 2 3 10 16 14 6 8 9 17 17 16 15 14 12 11 10 9 11 10 11 13 15 14 13 14 15 16 15 12 9 8 8 7 7 8
10 11 4 4 6 3 6 11 3 5 6 8 0 12 11 4 7 18 23 21 19 16 15 14 13 12 11 11 11 12 14 14 14 14 13 13 14 13 11 9 7 6 5 5
11 8 17 15 19 11 17 14 7 7 7 2 3 9 5 3 4 10 20 20 18 17 15 15 14 13 12 12 12 13 14 14 12 12 12 10 9 7 7 7 6 5 5 5
10 8 4 3 4 14 8 11 1 4 1 3 7 4 4 4 6 12 21 21 20 19 17 17 15 13 13 12 13 13 13 12 12 11 9 9 7 7 8 7 8 6 7 6
6 5 2 5 4 1 7 12 6 5 6 7 4 6 8 11 13 16 22 23 22 20 19 17 15 15 13 13 12 12 11 11 10 9 8 7 7 8 8 6 10 8 8 9
6 6 4 6 12 18 8 8 5 3 5 5 3 5 2 10 18 22 22 23 23 22 20 18 16 15 14 13 12 12 11 10 8 8 8 8 7 8 7 7 7 5 4 5
10 1 7 11 2 2 10 11 16 8 7 5 3 5 2 2 13 19 21 22 22 21 20 18 17 17 16 15 13 12 10 11 8 8 8 8 7 6 4 4 3 3 4 5
12 7 4 2 3 3 10 12 15 13 3 12 8 5 1 2 10 15 18 21 20 20 20 18 18 17 16 15 14 12 11 10 9 8 9 8 5 5 4 4 3 4 5 6
3 6 13 15 3 6 11 15 16 15 11 11 18 7 6 7 11 15 17 20 23 21 21 19 17 18 17 15 14 12 11 10 9 8 8 7 5 4 4 4 4 5 6 7
7 10 16 15 3 2 3 14 20 22 28 17 16 18 14 16 16 19 18 17 20 21 22 22 19 17 17 16 14 12 11 11 10 9 8 7 6 5 4 4 5 5 6 6
5 5 8 13 2 1 3 7 18 21 20 17 8 9 4 7 6 10 17 19 22 22 24 21 20 18 18 17 15 13 13 12 10 9 8 6 6 5 4 4 4 5 6 7
8 7 6 5 2 4 7 17 13 10 12 13 15 8 6 6 12 15 16 19 22 22 23 22 21 18 15 16 15 16 14 11 10 8 7 6 5 5 3 3 5 6 7 7
5 7 2 4 4 8 2 1 4 14 8 10 3 3 7 7 6 5 9 17 15 15 18 17 15 15 14 14 14 13 12 11 10 9 7 6 5 4 3 3 5 6 7 8
6 2 4 4 4 5 2 7 8 8 9 13 15 7 3 2 1 5 7 8 13 14 13 13 12 13 14 14 13 13 12 11 10 9 7 6 5 4 1 3 5 6 6 7
1 3 2 3 4 8 2 2 3 2 7 8 14 8 9 8 7 6 9 7 7 9 10 12 13 12 13 13 13 13 12 11 10 9 8 7 5 4 2 4 5 4 6 8
4 2 6 5 5 5 3 6 5 6 4 3 5 6 9 6 1 2 9 6 6 9 12 12 12 12 12 12 13 12 12 12 10 9 8 7 5 4 3 3 4 5 6 7
9 10 6 5 5 10 8 6 9 3 1 4 4 7 10 5 5 4 8 10 11 11 11 9 10 9 10 12 12 11 12 10 10 10 8 6 4 3 2 3 4 5 5 6
5 5 6 8 3 2 12 2 5 2 5 6 5 7 9 8 6 7 7 10 10 11 9 7 9 10 9 11 11 12 11 12 10 8 7 5 4 3 3 4 4 4 4 5
5 2 2 2 2 3 11 3 3 4 2 3 1 8 10 10 8 7 5 6 7 9 9 7 9 9 11 11 10 8 12 11 9 8 7 6 5 5 4 4 4 4 4 4
1 8 5 2 4 4 7 12 8 5 4 4 4 5 11 6 5 9 8 9 10 11 8 9 11 11 11 11 11 9 11 11 10 8 7 7 5 5 3 4 4 4 6 7
6 8 6 5 8 5 5 12 10 9 9 10 8 6 4 8 9 9 9 9 9 10 8 9 10 8 10 12 11 11 10 11 10 9 7 6 5 4 3 3 4 9 13 13
Wind_Direction
173 201 212 213 213 241 237 216 209 207 179 240 245 253 204 181 182 186 184 171 140 96 75 64 60 65 78 70 72 72 82 80 89 92 91 83 83 78 72 66 62 61 57 56
170 229 228 240 205 206 218 237 243 269 237 226 262 252 224 196 214 206 181 168 152 133 106 86 82 82 79 85 85 87 86 88 89 94 91 92 90 79 78 71 63 59 57 54
217 194 212 192 176 196 224 231 237 254 143 230 279 262 217 180 168 163 168 152 145 135 123 108 97 93 92 84 87 92 95 94 93 99 102 100 97 88 74 64 61 55 56 56
242 196 154 192 209 198 229 212 231 245 242 261 203 285 202 192 183 185 169 167 153 142 129 120 116 106 97 93 93 90 91 89 87 90 91 93 93 94 86 83 78 66 57 55
201 174 193 196 204 190 244 148 206 226 239 272 205 262 138 172 210 193 179 171 162 152 146 138 125 114 106 107 103 101 99 95 95 98 99 98 95 91 92 86 82 76 68 56
273 47 203 206 93 192 133 102 88 117 216 250 230 219 199 202 218 178 176 174 168 162 155 140 126 123 113 111 106 103 98 90 90 91 94 99 105 105 98 82 75 61 53 48
219 223 188 176 153 86 178 155 184 224 208 251 320 212 261 214 186 184 174 175 175 168 164 159 154 146 135 123 115 110 107 101 98 94 90 91 93 93 86 84 71 67 60 47
206 226 194 189 215 185 194 195 196 221 206 202 137 226 234 122 137 174 175 172 169 173 172 170 164 155 146 141 132 127 119 115 109 102 98 98 101 97 95 93 92 72 57 38
197 239 175 207 149 171 177 213 198 100 55 261 206 223 207 151 152 164 171 171 178 180 179 176 170 166 159 152 148 140 133 127 124 121 118 114 106 108 96 79 69 47 39 23
193 243 204 153 136 161 199 146 178 215 221 231 213 255 234 198 184 175 180 183 182 181 181 180 176 172 167 159 151 147 141 137 134 133 122 110 106 84 69 56 53 34 25 14
154 228 122 155 208 185 169 189 206 215 218 221 259 226 204 199 185 185 189 188 184 183 182 180 181 176 170 164 161 155 151 144 141 128 122 116 97 76 63 53 52 29 11 4
196 184 205 203 85 338 236 220 192 200 182 241 312 246 188 205 189 187 188 189 187 185 183 183 180 177 174 172 168 166 161 145 147 136 127 103 85 76 86 86 80 34 8 3
170 190 173 224 202 175 219 205 219 234 40 201 186 215 309 181 179 189 188 188 187 186 187 186 183 183 179 177 174 171 165 148 149 142 121 118 133 133 107 84 49 22 4 356
237 173 197 223 199 142 199 207 200 202 223 204 230 209 193 182 187 189 192 191 189 188 188 188 187 187 183 181 176 172 164 155 153 140 147 138 137 122 104 73 33 10 1 346
197 225 217 246 334 309 246 191 196 208 222 217 242 228 196 191 192 197 194 189 188 191 192 194 188 184 184 180 177 171 164 161 158 161 153 146 136 124 96 52 16 355 345 336
182 230 185 241 128 304 260 225 210 220 230 240 245 238 153 195 177 185 192 189 193 197 196 189 185 184 184 181 176 170 170 167 167 163 150 148 143 116 82 39 354 338 332 328
167 157 181 181 142 161 247 214 202 202 216 216 218 232 155 178 206 212 200 194 199 200 192 188 186 181 177 178 171 178 171 162 165 155 149 155 139 114 75 10 341 329 323 320
199 159 173 128 171 212 357 72 237 222 218 222 310 230 193 221 216 228 201 203 205 197 190 185 177 175 175 174 174 160 161 162 158 158 157 158 131 104 55 349 324 318 315 312
9 125 121 169 224 350 224 202 191 175 222 197 209 207 170 88 102 244 215 210 198 186 178 171 160 161 166 166 157 150 157 162 161 164 167 159 134 122 77 316 300 302 301 306
71 27 229 167 198 213 248 162 209 143 265 202 196 179 157 149 203 225 174 171 147 141 147 153 158 153 153 150 149 153 163 168 174 170 168 151 141 143 210 259 283 299 301 299
151 161 210 198 217 260 192 159 168 163 251 137 161 132 146 195 227 89 134 140 143 153 153 143 146 152 155 150 152 164 165 184 169 156 151 153 150 175 209 259 294 295 293 299
170 167 194 184 214 246 147 118 185 170 82 144 161 176 178 167 141 137 146 152 160 154 142 141 144 150 150 156 161 167 182 162 155 154 155 155 161 197 205 251 277 279 288 298
218 208 176 202 210 334 193 32 193 168 151 192 185 176 161 138 166 163 165 165 162 157 151 163 157 148 165 172 177 175 168 157 153 153 156 167 178 200 212 241 265 284 293 301
238 174 202 127 160 239 217 244 256 204 190 155 162 153 161 173 172 178 155 161 164 170 178 164 151 167 179 182 182 175 154 154 149 157 171 176 200 201 209 240 257 270 278 284
131 144 147 279 260 296 248 239 235 185 128 117 131 156 185 160 176 178 187 193 190 186 177 173 183 188 189 176 178 158 154 150 159 170 179 191 198 203 219 239 256 252 254 253
191 160 180 204 202 191 211 221 214 183 193 196 172 168 190 185 194 186 202 203 180 185 172 185 196 189 180 176 174 163 157 161 163 178 186 191 191 194 215 251 276 264 266 273